Home > Weather > Talkeetna > Past weeks

Flag for USA Past Weather in Talkeetna, Alaska, USA — Yesterday and Last 2 Weeks

Now
55 °F

Light rain. Overcast.


Feels Like: 55 °F
Forecast: 54 / 65 °F
Wind: 3 mph from North

Location: Talkeetna Weather Reporting Station

Current Time: Jun 26, 2016 at 7:32:25 AM

Latest Report: Jun 26, 2016 at 6:53 AM


Visibility: 10 mi

Pressure: 30.04 "Hg

Humidity: 83%

Dew Point: 50 °F

Location of TalkeetnaLocation

Past Weather in Talkeetna — Graph

°F

Talkeetna Temperature Yesterday

Maximum temperature yesterday: 72 °F (at 3:53 PM)
Minimum temperature yesterday: 54 °F (at 2:53 AM)
Average temperature yesterday: 63 °F

High & Low Weather Summary for the Past Weeks

 TemperatureHumidityPressure
High81 °F (Jun 16, 5:53 PM)97% (Jun 19, 10:53 PM)30.13 "Hg (Jun 19, 10:53 PM)
Low41 °F (Jun 12, 5:53 AM)15% (Jun 15, 5:53 PM)29.76 "Hg (Jun 24, 1:53 PM)
Average60 °F64%29.95 "Hg
* Reported Jun 11 5:53 AM — Jun 26 5:53 AM, Talkeetna, Weather by CustomWeather, © 2016

Note: Actual official high and low records may vary slightly from our data, if they occured in-between our weather recording intervals... More about our weather records

Advertising

Talkeetna Weather History for the Previous 24 Hours

Scroll right to see more
 ConditionsComfort  
Time TempWeatherWind HumidityBarometerVisibility
5:53 AM
Sun, Jun 26
56 °FOvercast.6 mph77%30.02 "Hg10 mi
4:53 AM57 °FOvercast.6 mph74%30.00 "Hg10 mi
3:53 AM57 °FOvercast.5 mph72%29.99 "Hg10 mi
2:53 AM58 °FOvercast.8 mph72%29.98 "Hg10 mi
1:53 AM57 °FOvercast.6 mph78%29.98 "Hg10 mi
12:53 AM58 °FLight rain. Mostly cloudy.7 mph78%29.98 "Hg10 mi
11:53 PM
Sat, Jun 25
60 °FLight rain. Overcast.7 mph75%29.96 "Hg10 mi
10:53 PM62 °FPartly sunny.10 mph67%29.94 "Hg10 mi
9:53 PM64 °FPartly sunny.12 mph61%29.92 "Hg10 mi
8:53 PM66 °FPartly sunny.17 mph56%29.90 "Hg10 mi
7:53 PM69 °FPartly sunny.14 mph55%29.88 "Hg10 mi
6:53 PM71 °FPartly sunny.9 mph47%29.87 "Hg10 mi
5:53 PM71 °FPartly sunny.9 mph45%29.86 "Hg10 mi
4:53 PM72 °FPartly sunny.7 mph40%29.86 "Hg10 mi
3:53 PM72 °FPartly sunny.5 mph40%29.87 "Hg10 mi
2:53 PM71 °FPartly sunny.6 mph36%29.86 "Hg10 mi
1:53 PM71 °FSunny.3 mph39%29.86 "Hg10 mi
12:53 PM70 °FScattered clouds.5 mph47%29.87 "Hg10 mi
11:53 AM67 °FSunny.5 mph61%29.88 "Hg10 mi
10:53 AM62 °FPassing clouds.3 mph73%29.89 "Hg10 mi
9:53 AM61 °FSunny.No wind75%29.90 "Hg10 mi
8:53 AM57 °FPartly sunny.No wind87%29.90 "Hg10 mi
7:53 AM56 °FLow clouds.No wind90%29.89 "Hg10 mi
Weather by CustomWeather, © 2016

See weather overviewHow to use our weather pages